Regional Weather Roundup
Issued by NWS

Home | Current Version | Previous Version | Graphics & Text | Print | Product List | Glossary On
Versions: 1 2 3 4 5 6 7 8 9 10 11 12 13 14 15 16 17 18 19 20 21 22 23 24 25 26 27 28 29 30 31 32 33 34 35 36 37 38 39 40 41 42 43 44 45 46 47 48 49 50
000
ASUS43 KMKX 061821
RWRWI

WISCONSIN REGIONAL WEATHER ROUNDUP
NATIONAL WEATHER SERVICE MILWAUKEE/SULLIVAN WI
100 PM CDT MON JUL 06 2015

NOTE: "FAIR" INDICATES FEW OR NO CLOUDS BELOW 12,000 FEET WITH NO
SIGNIFICANT WEATHER AND/OR OBSTRUCTIONS TO VISIBILITY.

WIZ001-002-006>008-014>016-023>028-061900-
NORTHWEST WISCONSIN

CITY           SKY/WX    TMP DP  RH WIND       PRES   REMARKS
SUPERIOR ARPT  DRIZZLE   60  59  96 CALM      29.93R
6HR MIN TEMP:  60; 6HR MAX TEMP:  66; 6HR PCP:  0.92;

ASHLAND        LGT RAIN  59  59 100 N9        29.91R FOG
6HR MIN TEMP:  59; 6HR MAX TEMP:  68; 6HR PCP:  0.19;

HAYWARD        RAIN      60  58  92 N14       29.89R FOG
6HR MIN TEMP:  61; 6HR MAX TEMP:  69; 6HR PCP:  0.83;

SIREN          RAIN      59  57  93 NE9       29.92R
6HR MIN TEMP:  59; 6HR MAX TEMP:  68; 6HR PCP:  0.63;

CUMBERLAND     RAIN      59  57  94 N20G26    29.88R
RICE LAKE      LGT RAIN  62  59  90 NW15G25   29.86R
6HR MIN TEMP:  62; 6HR MAX TEMP:  72; 6HR PCP:  0.22;

CHETEK         CLOUDY    73  70  88 W3        29.80F
6HR MIN TEMP:  67; 6HR MAX TEMP:  74; 6HR PCP:  0.11;

LADYSMITH      RAIN      72  69  90 SW7       29.83S
6HR MIN TEMP:  67; 6HR MAX TEMP:  73;

EAU CLAIRE     HVY RAIN  70  68  93 W10       29.79R VSB 3/4
6HR MIN TEMP:  68; 6HR MAX TEMP:  74; 6HR PCP:  0.56;

MENOMONIE      CLOUDY    74  73  94 W5        29.80S
6HR MIN TEMP:  68; 6HR MAX TEMP:  74; 6HR PCP:  0.52;

NEW RICHMOND   LGT RAIN  63  61  94 N23G29    29.88R
6HR MIN TEMP:  63; 6HR MAX TEMP:  72; 6HR PCP:  0.33;

OSCEOLA        RAIN      62  62 100 N15G22    29.92R
6HR MIN TEMP:  62; 6HR MAX TEMP:  71; 6HR PCP:  0.45;

$$

WIZ003>005-009-010-017-018-061900-
NORTH CENTRAL WISCONSIN

CITY           SKY/WX    TMP DP  RH WIND       PRES   REMARKS
MANITOWISH WTR RAIN      68  68 100 CALM      29.82F
6HR MIN TEMP:  66; 6HR MAX TEMP:  68; 6HR PCP:  0.31;

ARBOR VITAE    DRIZZLE   72  70  94 S7        29.82F
6HR MIN TEMP:  67; 6HR MAX TEMP:  72; 6HR PCP:  0.21;

WOODRUFF       DRIZZLE   72  70  94 S7        29.82F
6HR MIN TEMP:  67; 6HR MAX TEMP:  72; 6HR PCP:  0.21;

RHINELANDER    CLOUDY    71  67  87 SW5       29.84F
6HR MIN TEMP:  66; 6HR MAX TEMP:  71; 6HR PCP:  0.52;

EAGLE RIVER    LGT RAIN  70  68  94 S5        29.82F
LAND O LAKES   RAIN      68  67  96 CALM      29.83F
6HR MIN TEMP:  67; 6HR MAX TEMP:  69; 6HR PCP:  0.19;

PHILLIPS       RAIN      68  68  99 S7        29.81F
6HR MIN TEMP:  65; 6HR MAX TEMP:  69; 6HR PCP:  0.80;

TOMAHAWK       CLOUDY    71  67  88 CALM      29.83F
6HR MIN TEMP:  65; 6HR MAX TEMP:  71;

MEDFORD        CLOUDY    72  69  90 S8        29.82F
6HR MIN TEMP:  65; 6HR MAX TEMP:  72; 6HR PCP:  0.27;

MERRILL        LGT RAIN  73  70  92 S7        29.83S
6HR MIN TEMP:  66; 6HR MAX TEMP:  74; 6HR PCP:  0.40;

$$

WIZ029-030-035-036-043>047-061900-
CENTRAL WISCONSIN

CITY           SKY/WX    TMP DP  RH WIND       PRES   REMARKS
WAUSAU         CLOUDY    73  69  87 S9        29.82S
6HR MIN TEMP:  68; 6HR MAX TEMP:  74; 6HR PCP:  0.28;

MOSINEE        PTSUNNY   72  72 100 S8        29.85S
MARSHFIELD     LGT RAIN  75  69  81 S9        29.83F
6HR MIN TEMP:  68; 6HR MAX TEMP:  76; 6HR PCP:  0.09;

STEVENS POINT  CLOUDY    74  68  82 S10       29.84F
6HR MIN TEMP:  66; 6HR MAX TEMP:  74; 6HR PCP:  0.31;

WAUPACA        CLOUDY    78  73  83 S12       29.84F HX  81
6HR MIN TEMP:  68; 6HR MAX TEMP:  78;

WAUTOMA        CLOUDY    79  72  78 S10       29.84F HX  82
6HR MIN TEMP:  68; 6HR MAX TEMP:  77; 6HR PCP: TRACE;

WISC RAPIDS    CLOUDY    78  70  76 S7        29.83F HX  80
6HR MIN TEMP:  68; 6HR MAX TEMP:  79; 6HR PCP:  0.40;

CAMP DOUGLAS   MOSUNNY   79  77  94 S8        29.81F HX  83
                                      6HR PCP:  0.13;

$$

WIZ011>013-019>022-031-037>040-048>050-061900-
NORTHEAST WISCONSIN

CITY           SKY/WX    TMP DP  RH WIND       PRES   REMARKS
ANTIGO         LGT RAIN  71  69  95 S12       29.85R
SHAWANO        CLOUDY    75  71  88 S7        29.83F FOG
6HR MIN TEMP:  68; 6HR MAX TEMP:  75; 6HR PCP:  0.05;

OCONTO         CLOUDY    74  74 100 S7        29.82F
6HR MIN TEMP:  67; 6HR MAX TEMP:  77; 6HR PCP:  0.08;

STURGEON BAY   CLOUDY    70  63  78 SE9       29.87F
6HR MIN TEMP:  64; 6HR MAX TEMP:  73;

GREEN BAY      CLOUDY    79  71  76 SW12      29.84F HAZE    HX  82
6HR MIN TEMP:  67; 6HR MAX TEMP:  79; 6HR PCP:  0.01;

MANITOWOC      CLOUDY    73  65  75 MISG      29.87F HAZE
6HR MIN TEMP:  66; 6HR MAX TEMP:  73;

APPLETON       CLOUDY    75  70  83 SW12G18   29.87S
CLINTONVILLE   CLOUDY    77  72  83 S13       29.83F
OSHKOSH        CLOUDY    78  69  73 S13       29.84F HX  80
6HR MIN TEMP:  68; 6HR MAX TEMP:  79; 6HR PCP: TRACE;

$$

WIZ032>034-041-042-053>061-061900-
SOUTHWEST WISCONSIN

CITY           SKY/WX    TMP DP  RH WIND       PRES   REMARKS
LA CROSSE      CLOUDY    77  69  76 SW8       29.81S
6HR MIN TEMP:  72; 6HR MAX TEMP:  77; 6HR PCP:  0.02;

SPARTA         CLOUDY    77  67  72 S8        29.82F
6HR MIN TEMP:  69; 6HR MAX TEMP:  78; 6HR PCP:  0.13;

VIROQUA        CLOUDY    76  68  74 S9        29.84F
6HR MIN TEMP:  69; 6HR MAX TEMP:  77; 6HR PCP:  0.31;

BOSCOBEL       CLOUDY    79  69  71 SW8       29.83F HX  81
6HR MIN TEMP:  72; 6HR MAX TEMP:  79; 6HR PCP:  0.34;

PRAIRIE DU CHI CLOUDY    75  67  76 SW5       29.84R
6HR MIN TEMP:  72; 6HR MAX TEMP:  76;

PLATTEVILLE    CLOUDY    75  72  88 SE13      29.84F
6HR MIN TEMP:  70; 6HR MAX TEMP:  75; 6HR PCP:  0.01;

$$

WIZ056-057-062-063-064-067-068-061900-
SOUTH CENTRAL WISCONSIN

CITY           SKY/WX    TMP DP  RH WIND       PRES   REMARKS
REEDSBURG      CLOUDY    76  71  85 S5        29.82F
6HR MIN TEMP:  70; 6HR MAX TEMP:  76; 6HR PCP:  0.07;

BARABOO/DELLS  CLOUDY    75  69  80 S12       29.83F
6HR MIN TEMP:  70; 6HR MAX TEMP:  76; 6HR PCP:  0.09;

LONE ROCK      CLOUDY    78  70  76 S9        29.82F HX  80
6HR MIN TEMP:  71; 6HR MAX TEMP:  78; 6HR PCP:  0.06;

MINERAL POINT  CLOUDY    77  72  83 SE12      29.84F
MADISON        CLOUDY    74  70  87 S7        29.84F
6HR MIN TEMP:  70; 6HR MAX TEMP:  76; 6HR PCP:  0.28;

MIDDLETON      CLOUDY    76  72  86 S6        29.85F
6HR MIN TEMP:  70; 6HR MAX TEMP:  76; 6HR PCP:  0.11;

WATERTOWN      CLOUDY    74  74 100 SW6       29.89F
6HR MIN TEMP:  66; 6HR MAX TEMP:  78; 6HR PCP:  0.08;

MONROE         CLOUDY    73  70  88 S7        29.88F
JANESVILLE     CLOUDY    75  73  94 S6        29.90F
$$

WIZ051-052-058>065-066-070>072-061900-
SOUTHEAST WISCONSIN

CITY           SKY/WX    TMP DP  RH WIND       PRES   REMARKS
MILWAUKEE      CLOUDY    85  69  58 S15       29.89F HX  89
6HR MIN TEMP:  68; 6HR MAX TEMP:  85;

WAUKESHA       LGT RAIN  72  68  88 W8        29.91F FOG
MILWAUKEE/TIMM LGT RAIN  73  66  78 SW6       29.91F
RACINE         CLOUDY    80  66  62 S12       29.92F HAZE    HX  82
6HR MIN TEMP:  68; 6HR MAX TEMP:  80;

BURLINGTON     LGT RAIN  71  68  91 W6        29.93R
6HR MIN TEMP:  62; 6HR MAX TEMP:  82; 6HR PCP:  0.08;

KENOSHA        CLOUDY    85  71  63 S14G22    29.91F HX  90
6HR MIN TEMP:  67; 6HR MAX TEMP:  85;

FOND DU LAC    CLOUDY    78  69  73 SW16G24   29.87F HX  80
6HR MIN TEMP:  71; 6HR MAX TEMP:  81; 6HR PCP: TRACE;

SHEBOYGAN      CLOUDY    79  69  71 SE9       29.87F HAZE    HX  81
6HR MIN TEMP:  64; 6HR MAX TEMP:  80;

WEST BEND      LGT RAIN  72  68  88 SW6       29.89F
JUNEAU         CLOUDY    73  71  93 SW10      29.90F
6HR MIN TEMP:  66; 6HR MAX TEMP:  77; 6HR PCP:  0.02;

$$

LSZ147-162-061900-
LAKE SUPERIOR

STATION/POSITION TIME  TEMP    WIND        PRES    WAVE
                       AIR SEA DIR/SP/G            HT/PER
                 (UTC) (F)     (DEG/KT/KT) (MB)    (FT/S)
W MID LAKE BUOY  1750   47 39  350/  8/ 10 1012.4R   0
DEVILS ISLAND    1800   59      70/  9/ 11 1012.3F
PORT WING        1801   61      60/  5/  9 1012.9R
SAXON HARBOR     1740   60      10/ 15/ 17 1012.2R
$$

LMZ867-665-643>646-061900-
LAKE MICHIGAN

STATION/POSITION TIME  TEMP    WIND        PRES    WAVE
                       AIR SEA DIR/SP/G            HT/PER


USA.gov is the U.S. government's official web portal to all federal, state and local government web resources and services.